Melbourne Airport, Victoria

8:18 AM AEDT on February 11, 2016 (GMT +1100)
Melbourne Airport

Weather History for 94866 - February, 2014

Change the Weather History Date:

Thursday, February 13, 2014

  Actual Average Record
Temperature  
Mean Temperature 72 °F -  
Max Temperature 80 °F 75 °F - ()
Min Temperature 63 °F 54 °F - ()
Cooling Degree Days 6    
Growing Degree Days 22 (Base 50)    
Moisture  
Dew Point 60 °F    
Average Humidity 65    
Maximum Humidity 88    
Minimum Humidity 33    
Precipitation  
Precipitation 0.00 in 0.05 in - ()
Sea Level Pressure  
Sea Level Pressure 29.87 in    
Wind  
Wind Speed 6 mph ()    
Max Wind Speed 10 mph    
Max Gust Speed -    
Visibility 5.2 miles    
Events      
T = Trace of Precipitation, MM = Missing Value Source: Averaged Metar Reports

Daily Weather History Graph

Daily Weather History Graph

Search for Another Location

Airport or City:

Trip Planner

Search our weather history database for the weather conditions in past years. The results will help you decide how hot, cold, wet, or windy it might be!

Date:

Astronomy

Feb. 13, 2014 Rise Set
Actual Time 6:47 AM AEDT 8:21 PM AEDT
Civil Twilight 6:19 AM AEDT 8:49 PM AEDT
Nautical Twilight 5:46 AM AEDT 9:22 PM AEDT
Astronomical Twilight 5:11 AM AEDT 9:57 PM AEDT
Moon 7:01 PM AEDT (2/13) 5:02 AM AEDT (2/13)
Length of Visible Light 14h 29m
Length of Day
13h 33m
Waxing Gibbous, 97% of the Moon is Illuminated
Feb 13
Waxing Gibbous
Feb 15
Full
Feb 23
Last Quarter
Mar 1
New
Mar 9
First Quarter

Hourly Weather History & Observations

Time (AEDT) Temp. Dew Point Humidity Pressure Visibility Wind Dir Wind Speed Gust Speed Precip Events Conditions
12:00 AM 67 °F 62 °F 79% 29.94 in 4 mi West 10.4 mph - -   Smoke
12:00 AM 68.0 °F 62.6 °F 83% 29.95 in 4.3 mi West 10.4 mph - N/A   Unknown
12:30 AM 68.0 °F 62.6 °F 83% 29.92 in 5.0 mi West 8.1 mph - N/A   Unknown
1:00 AM 67 °F 62 °F 79% 29.93 in - West 9.2 mph - -  
1:00 AM 68.0 °F 62.6 °F 83% 29.92 in 5.0 mi West 9.2 mph - N/A   Unknown
1:30 AM 68.0 °F 62.6 °F 83% 29.92 in 5.6 mi West 9.2 mph - N/A   Unknown
2:00 AM 67 °F 62 °F 79% 29.92 in - West 9.2 mph - -  
2:00 AM 68.0 °F 62.6 °F 83% 29.92 in 5.6 mi West 9.2 mph - N/A   Unknown
2:30 AM 68.0 °F 62.6 °F 83% 29.89 in 5.6 mi West 9.2 mph - N/A   Unknown
3:00 AM 67 °F 62 °F 79% 29.90 in 6 mi West 8.1 mph - -   Smoke
3:00 AM 66.2 °F 62.6 °F 88% 29.89 in 5.6 mi West 8.1 mph - N/A   Unknown
3:30 AM 66.2 °F 60.8 °F 83% 29.89 in 5.6 mi West 6.9 mph - N/A   Unknown
4:00 AM 65 °F 61 °F 84% 29.87 in - West 5.8 mph - -  
4:00 AM 66.2 °F 60.8 °F 83% 29.86 in 5.6 mi West 5.8 mph - N/A   Unknown
4:30 AM 66.2 °F 60.8 °F 83% 29.86 in 5.6 mi West 8.1 mph - N/A   Unknown
5:00 AM 65 °F 61 °F 82% 29.87 in - SW 4.6 mph - -  
5:00 AM 64.4 °F 60.8 °F 88% 29.86 in 5.6 mi SW 4.6 mph - N/A   Unknown
5:30 AM 66.2 °F 60.8 °F 83% 29.86 in 5.6 mi West 6.9 mph - N/A   Unknown
6:00 AM 65 °F 61 °F 81% 29.86 in 6 mi NW 3.5 mph - -   Smoke
6:00 AM 64.4 °F 60.8 °F 88% 29.86 in 5.6 mi NW 3.5 mph - N/A   Unknown
6:30 AM 64.4 °F 60.8 °F 88% 29.86 in 5.6 mi Calm Calm - N/A   Unknown
7:00 AM 65 °F 61 °F 83% 29.89 in - NW 3.5 mph - -  
7:00 AM 64.4 °F 60.8 °F 88% 29.89 in 5.0 mi NW 3.5 mph - N/A   Unknown
7:30 AM 66.2 °F 60.8 °F 83% 29.89 in 5.0 mi West 4.6 mph - N/A   Unknown
8:00 AM 67 °F 61 °F 77% 29.89 in - SW 1.2 mph - -  
8:00 AM 66.2 °F 60.8 °F 83% 29.89 in 5.0 mi SW 1.2 mph - N/A   Unknown
8:30 AM 68.0 °F 60.8 °F 78% 29.92 in 5.0 mi SSW 4.6 mph - N/A   Unknown
9:00 AM 69 °F 61 °F 69% 29.92 in 5 mi WSW 4.6 mph - -   Smoke
9:00 AM 69.8 °F 60.8 °F 73% 29.92 in 5.0 mi WSW 4.6 mph - N/A   Unknown
9:30 AM 69.8 °F 62.6 °F 78% 29.92 in 4.3 mi SW 8.1 mph - N/A   Unknown
10:00 AM 71 °F 62 °F 65% 29.93 in - WSW 5.8 mph - -  
10:00 AM 71.6 °F 62.6 °F 73% 29.92 in 4.3 mi WSW 5.8 mph - N/A   Unknown
10:30 AM 71.6 °F 60.8 °F 69% 29.92 in 4.3 mi SSW 6.9 mph - N/A   Unknown
11:00 AM 73 °F 60 °F 54% 29.92 in - SW 6.9 mph - -  
11:00 AM 73.4 °F 60.8 °F 65% 29.92 in 5.0 mi SW 6.9 mph - N/A   Unknown
11:30 AM 73.4 °F 59.0 °F 61% 29.92 in 5.6 mi South 8.1 mph - N/A   Unknown
12:00 PM 73 °F 60 °F 54% 29.90 in 6 mi SW 6.9 mph - -   Smoke
12:00 PM 73.4 °F 60.8 °F 65% 29.89 in 5.6 mi SW 6.9 mph - N/A   Unknown
12:30 PM 75.2 °F 60.8 °F 61% 29.89 in 5.6 mi West 4.6 mph - N/A   Unknown
1:00 PM 78 °F 58 °F 40% 29.88 in - North 2.3 mph - -  
1:00 PM 77.0 °F 59.0 °F 54% 29.89 in - North 2.3 mph - N/A   Clear
1:30 PM 78.8 °F 57.2 °F 47% 29.89 in - SSW 5.8 mph - N/A   Clear
2:00 PM 78 °F 56 °F 36% 29.88 in - SW 4.6 mph - -  
2:00 PM 78.8 °F 55.4 °F 44% 29.89 in - SW 4.6 mph - N/A   Clear
2:30 PM 78.8 °F 55.4 °F 44% 29.86 in 5.6 mi South 5.8 mph - N/A   Unknown
3:00 PM 79 °F 55 °F 33% 29.85 in 6 mi SSE 8.1 mph - -   Smoke
3:00 PM 78.8 °F 55.4 °F 44% 29.86 in - SSE 8.1 mph - N/A   Clear
3:30 PM 78.8 °F 59.0 °F 51% 29.86 in - South 10.4 mph - N/A   Clear
4:00 PM 78 °F 60 °F 44% 29.85 in - South 8.1 mph - -  
4:00 PM 77.0 °F 60.8 °F 57% 29.86 in - South 8.1 mph - N/A   Clear
4:30 PM 78.8 °F 60.8 °F 54% 29.86 in 5.6 mi SSE 6.9 mph - N/A   Unknown
5:00 PM 78 °F 61 °F 46% 29.85 in - South 6.9 mph - -  
5:00 PM 78.8 °F 60.8 °F 54% 29.86 in 5.6 mi South 6.9 mph - N/A   Unknown
5:30 PM 78.8 °F 60.8 °F 54% 29.83 in 5.0 mi South 4.6 mph - N/A   Unknown
6:00 PM 80 °F 59 °F 38% 29.83 in 5 mi South 6.9 mph - -   Smoke
6:00 PM 78.8 °F 59.0 °F 51% 29.83 in 5.0 mi South 6.9 mph - N/A   Unknown
6:30 PM 78.8 °F 59.0 °F 51% 29.83 in 5.6 mi South 4.6 mph - N/A   Unknown
7:00 PM 79 °F 59 °F 40% 29.81 in - South 3.5 mph - -  
7:00 PM 78.8 °F 59.0 °F 51% 29.80 in 5.0 mi South 3.5 mph - N/A   Unknown
7:30 PM 78.8 °F 59.0 °F 51% 29.80 in 5.0 mi Calm Calm - N/A   Unknown
8:00 PM 77 °F 59 °F 44% 29.80 in - North 3.5 mph - -  
8:00 PM 77.0 °F 59.0 °F 54% 29.80 in 5.0 mi North 3.5 mph - N/A   Unknown
8:30 PM 77.0 °F 59.0 °F 54% 29.80 in 5.0 mi Calm Calm - N/A   Unknown
9:00 PM 76 °F 59 °F 45% 29.80 in 5 mi North 5.8 mph - -   Smoke
9:00 PM 77.0 °F 59.0 °F 54% 29.80 in 5.0 mi North 5.8 mph - N/A   Unknown
9:30 PM 75.2 °F 59.0 °F 57% 29.80 in 5.0 mi North 5.8 mph - N/A   Unknown
10:00 PM 76 °F 60 °F 48% 29.81 in - NNE 4.6 mph - -  
10:00 PM 75.2 °F 60.8 °F 61% 29.80 in 5.0 mi NNE 4.6 mph - N/A   Unknown
10:30 PM 73.4 °F 59.0 °F 61% 29.80 in 5.0 mi NW 3.5 mph - N/A   Unknown
11:00 PM 74 °F 59 °F 50% 29.81 in - NNW 3.5 mph - -  
11:00 PM 73.4 °F 59.0 °F 61% 29.80 in 5.0 mi NNW 3.5 mph - N/A   Unknown
11:30 PM 73.4 °F 60.8 °F 65% 29.80 in 5.0 mi WSW 4.6 mph - N/A   Unknown